Date String (YYYY-MM-DD hh:mm:ss) UTC,Instrument flags,Ambient pressure (hPa),Sample flow (lpm),Bypass flow (lpm),Sample temperature (°C),Ambient temperature (°C),ASC tube jacket temperature (°C),LED temperature (°C),Box temperature (°C),Sample RH (%),Span deviation,Mass concentration (μg/m³),Mass concentration (μg/m³),Mass concentration (μg/m³)
DateTimeUTC,F1_M11,P_M11,Q1_M11,Q2_M11,T1_M11,T2_M11,T3_M11,T4_M11,T5_M11,U1_M11,ZSPAN_M11,X0_M11,X2_M11,X1_M11
2022-11-06 19:00:00,,0824.5,4.98,0.00,21.9,20.4,00.0,30.7,23.8,14.6,0000.0,0007.57,0002.66,0001.68
2022-11-06 19:01:00,,0824.4,5.01,0.00,21.9,20.4,00.0,30.7,23.8,14.2,0000.0,0007.48,0002.58,0001.68
2022-11-06 19:02:00,,0824.3,4.99,0.00,21.9,20.4,00.0,30.7,23.8,14.2,0000.0,0007.40,0002.57,0001.67
2022-11-06 19:03:00,,0824.3,5.00,0.00,21.9,20.4,00.0,30.7,23.7,14.1,0000.0,0007.53,0002.63,0001.68
2022-11-06 19:04:00,,0824.3,5.01,0.00,21.8,20.3,00.0,30.7,23.7,14.1,0000.0,0007.61,0002.66,0001.66
2022-11-06 19:05:00,,0824.3,5.01,0.00,21.8,20.3,00.0,30.7,23.7,14.0,0000.0,0007.60,0002.65,0001.64
2022-11-06 19:06:00,,0824.3,4.99,0.00,21.8,20.3,00.0,30.7,23.7,14.3,0000.0,0007.67,0002.67,0001.63
2022-11-06 19:07:00,,0824.2,5.00,0.00,21.8,20.3,00.0,30.7,23.7,14.4,0000.0,0007.76,0002.63,0001.62
2022-11-06 19:08:00,,0824.2,5.01,0.00,21.8,20.3,00.0,30.7,23.7,14.5,0000.0,0008.10,0002.66,0001.60
2022-11-06 19:09:00,,0824.2,5.00,0.00,21.8,20.2,00.0,30.7,23.7,14.4,0000.0,0008.38,0002.72,0001.59
2022-11-06 19:10:00,,0824.2,5.01,0.00,21.8,20.3,00.0,30.7,23.7,14.1,0000.0,0007.85,0002.74,0001.58
2022-11-06 19:11:00,,0824.3,4.99,0.00,21.8,20.3,00.0,30.7,23.7,14.2,0000.0,0006.97,0002.72,0001.57
2022-11-06 19:12:00,,0824.2,4.99,0.00,21.8,20.3,00.0,30.7,23.7,14.3,0000.0,0006.84,0002.69,0001.55
2022-11-06 19:13:00,,0824.3,5.01,0.00,21.8,20.3,00.0,30.6,23.7,14.5,0000.0,0006.81,0002.63,0001.52
2022-11-06 19:14:00,,0824.3,5.00,0.00,21.8,20.4,00.0,30.6,23.7,14.6,0000.0,0007.39,0002.62,0001.51
2022-11-06 19:15:00,,0824.3,4.99,0.00,21.8,20.4,00.0,30.6,23.7,14.7,0000.0,0007.28,0002.57,0001.49
2022-11-06 19:16:00,,0824.3,5.00,0.00,21.8,20.4,00.0,30.6,23.7,14.9,0000.0,0007.13,0002.51,0001.48
2022-11-06 19:17:00,,0824.3,5.00,0.00,21.8,20.4,00.0,30.6,23.7,15.0,0000.0,0007.20,0002.47,0001.46
2022-11-06 19:18:00,,0824.3,5.00,0.00,21.8,20.4,00.0,30.6,23.7,14.9,0000.0,0007.87,0002.46,0001.46
2022-11-06 19:19:00,,0824.2,4.99,0.00,21.8,20.4,00.0,30.6,23.7,14.5,0000.0,0007.56,0002.42,0001.47
2022-11-06 19:20:00,,0824.4,5.00,0.00,21.8,20.4,00.0,30.6,23.8,14.4,0000.0,0007.63,0002.37,0001.46
2022-11-06 19:21:00,,0824.2,5.01,0.00,21.8,20.4,00.0,30.6,23.8,14.5,0000.0,0008.19,0002.44,0001.45
2022-11-06 19:22:00,,0824.2,5.00,0.00,21.8,20.4,00.0,30.6,23.7,14.3,0000.0,0008.38,0002.47,0001.45
2022-11-06 19:23:00,,0824.2,5.01,0.00,21.8,20.4,00.0,30.6,23.7,14.4,0000.0,0008.34,0002.46,0001.45
2022-11-06 19:24:00,,0824.3,5.00,0.00,21.8,20.4,00.0,30.6,23.7,14.5,0000.0,0008.26,0002.48,0001.45
2022-11-06 19:25:00,,0824.3,4.99,0.00,21.8,20.4,00.0,30.6,23.7,14.2,0000.0,0007.89,0002.48,0001.46
2022-11-06 19:26:00,,0824.3,5.00,0.00,21.8,20.4,00.0,30.6,23.7,14.3,0000.0,0008.33,0002.57,0001.48
2022-11-06 19:27:00,,0824.2,5.02,0.00,21.8,20.4,00.0,30.6,23.7,14.2,0000.0,0008.97,0002.60,0001.48
2022-11-06 19:28:00,,0824.2,5.00,0.00,21.8,20.4,00.0,30.6,23.7,14.1,0000.0,0009.08,0002.62,0001.50
2022-11-06 19:29:00,,0824.2,4.98,0.00,21.8,20.4,00.0,30.6,23.7,14.2,0000.0,0009.10,0002.61,0001.50
2022-11-06 19:30:00,,0824.2,5.01,0.00,21.8,20.4,00.0,30.6,23.7,14.3,0000.0,0008.93,0002.62,0001.49
2022-11-06 19:31:00,,0824.2,5.00,0.00,21.8,20.4,00.0,30.6,23.7,14.3,0000.0,0008.78,0002.59,0001.51
2022-11-06 19:32:00,,0824.3,5.00,0.00,21.8,20.4,00.0,30.6,23.7,14.4,0000.0,0008.64,0002.48,0001.50
2022-11-06 19:33:00,,0824.2,5.02,0.00,21.8,20.3,00.0,30.6,23.7,14.3,0000.0,0008.69,0002.46,0001.50
2022-11-06 19:34:00,,0824.2,5.00,0.00,21.8,20.2,00.0,30.6,23.6,14.2,0000.0,0009.09,0002.51,0001.50
2022-11-06 19:35:00,,0824.3,5.00,0.00,21.8,20.2,00.0,30.6,23.6,14.4,0000.0,0009.44,0002.56,0001.50
2022-11-06 19:36:00,,0824.2,5.00,0.00,21.8,20.3,00.0,30.6,23.7,14.4,0000.0,0009.78,0002.59,0001.50
2022-11-06 19:37:00,,0824.2,5.00,0.00,21.8,20.3,00.0,30.6,23.7,14.7,0000.0,0009.51,0002.48,0001.48
2022-11-06 19:38:00,,0824.3,5.00,0.00,21.8,20.3,00.0,30.6,23.6,15.0,0000.0,0008.58,0002.40,0001.47
2022-11-06 19:39:00,,0824.2,5.00,0.00,21.7,20.3,00.0,30.6,23.6,15.2,0000.0,0008.52,0002.41,0001.45
2022-11-06 19:40:00,,0824.2,5.00,0.00,21.7,20.2,00.0,30.6,23.6,15.3,0000.0,0007.62,0002.35,0001.44
2022-11-06 19:41:00,,0824.2,5.00,0.00,21.7,20.2,00.0,30.6,23.6,15.3,0000.0,0007.53,0002.31,0001.43
2022-11-06 19:42:00,,0824.3,5.00,0.00,21.7,20.2,00.0,30.6,23.6,15.4,0000.0,0007.97,0002.28,0001.42
2022-11-06 19:43:00,,0824.3,5.00,0.00,21.7,20.2,00.0,30.6,23.5,15.3,0000.0,0008.50,0002.31,0001.42
2022-11-06 19:44:00,,0824.3,5.00,0.00,21.7,20.1,00.0,30.6,23.5,15.0,0000.0,0008.51,0002.35,0001.43
2022-11-06 19:45:00,,0824.3,5.00,0.00,21.7,20.1,00.0,30.6,23.5,15.1,0000.0,0008.10,0002.37,0001.44
2022-11-06 19:46:00,,0824.3,5.00,0.00,21.6,20.1,00.0,30.5,23.5,15.2,0000.0,0007.93,0002.38,0001.46
2022-11-06 19:47:00,,0824.3,5.01,0.00,21.6,20.1,00.0,30.5,23.5,15.2,0000.0,0007.58,0002.31,0001.47
2022-11-06 19:48:00,,0824.3,4.99,0.00,21.6,20.1,00.0,30.5,23.5,15.3,0000.0,0007.74,0002.33,0001.47
2022-11-06 19:49:00,,0824.3,4.98,0.00,21.6,20.1,00.0,30.5,23.5,15.3,0000.0,0007.85,0002.38,0001.49
2022-11-06 19:50:00,,0824.4,5.02,0.00,21.6,20.0,00.0,30.5,23.5,15.3,0000.0,0007.86,0002.40,0001.52
2022-11-06 19:51:00,,0824.3,4.99,0.00,21.6,20.0,00.0,30.5,23.4,15.2,0000.0,0007.91,0002.46,0001.54
2022-11-06 19:52:00,,0824.3,5.00,0.00,21.6,20.0,00.0,30.5,23.5,15.3,0000.0,0007.88,0002.48,0001.55
2022-11-06 19:53:00,,0824.3,5.00,0.00,21.6,20.1,00.0,30.5,23.5,15.5,0000.0,0007.64,0002.51,0001.55
2022-11-06 19:54:00,,0824.4,5.00,0.00,21.6,20.1,00.0,30.5,23.5,15.5,0000.0,0006.53,0002.51,0001.56
2022-11-06 19:55:00,,0824.5,4.99,0.00,21.6,20.1,00.0,30.5,23.5,15.5,0000.0,0005.68,0002.48,0001.57
2022-11-06 19:56:00,,0824.4,5.00,0.00,21.6,20.1,00.0,30.5,23.5,15.3,0000.0,0005.56,0002.44,0001.57
2022-11-06 19:57:00,,0824.4,5.00,0.00,21.6,20.1,00.0,30.5,23.4,15.6,0000.0,0005.52,0002.42,0001.57
2022-11-06 19:58:00,,0824.5,5.01,0.00,21.6,20.0,00.0,30.4,23.5,15.6,0000.0,0005.56,0002.41,0001.55
2022-11-06 19:59:00,,0824.4,4.99,0.00,21.6,20.0,00.0,30.4,23.5,15.6,0000.0,0005.45,0002.41,0001.55
